Location: Aranbee
(34.0885°N, 118.2342°W)
Time: 13:21:23
(UTC+00:00)

Tiros 1 - Pass Details

Date: 30 November 2020
Orbit: 630 x 663 km, 48.4° (Epoch: 21 January)

Event Time Altitude Azimuth Distance (km) Brightness Sun altitude
Rises 01:00:13 0° 293° (WNW) 2,991 11.3 -3.9°
Reaches altitude 10° 01:03:32 10° 317° (NW) 2,076 10.0 -4.6°
Maximum altitude 01:06:18 15° 352° (N) 1,754 9.2 -5.1°
Drops below altitude 10° 01:09:04 10° 28° (NNE) 2,068 9.3 -5.6°
Enters shadow 01:10:54 - 43° (NE) 2,526 9.6 -6.0°
Sets 01:12:22 0° 51° (NE) 2,973 - -6.3°
